This demonstration page uses our WeatherBlox Daily Observations layout. Learn more.

Left ArrowRight Arrow

39.92423, -83.80882

Hourly Observations for November 13, 2015

Temp ( °F °C ) Dew Point ( °F °C ) Humidity (%) Winds ( mph kmh ) Pressure ( in mb ) Visibility ( mi km ) Precip ( " mm )
12:56 am 00:56 Clear 45 7.2 33 0.5 63 63 WSW 28 44 29.93 1013 10 16.0934 0 0
1:56 am 01:56 Clear 42 5.5 33 0.5 71 71 WSW 18 30 29.93 1014 10 16.0934 0 0
2:56 am 02:56 Clear 42 5.5 33 0.5 71 71 WSW 16 26 29.94 1014 10 16.0934 0 0
3:56 am 03:56 Cloudy 43 6.1 33 0.5 68 68 WSW 20 31 29.94 1014 10 16.0934 0 0
4:56 am 04:56 Mostly Cloudy 42 5.5 32 0 68 68 WSW 14 22 29.96 1015 10 16.0934 0 0
5:56 am 05:56 Mostly Cloudy 40 4.4 31 -0.5 71 71 WSW 15 24 29.99 1016 10 16.0934 0 0
6:56 am 06:56 Clear 38 3.3 30 -1.1 73 73 WSW 18 30 30.01 1016 10 16.0934 0 0
7:56 am 07:56 Sunny 38 3.3 30 -1.1 73 73 WSW 16 26 30.03 1017 10 16.0934 0 0
8:56 am 08:56 Sunny 40 4.4 30 -1.1 68 68 WSW 21 33 30.06 1018 10 16.0934 0 0
9:56 am 09:56 Mostly Sunny 42 5.5 30 -1.1 63 63 WSW 22 35 30.06 1018 10 16.0934 0 0
10:56 am 10:56 Sunny 44 6.6 30 -1.1 58 58 WSW 20 31 30.05 1018 10 16.0934 0 0
11:56 am 11:56 Sunny 47 8.3 29 -1.6 50 50 WSW 22 35 30.04 1017 10 16.0934 0 0
12:56 pm 12:56 Sunny 50 10 26 -3.3 39 39 WSW 25 41 30.03 1017 10 16.0934 0 0
1:56 pm 13:56 Sunny 50 10 21 -6.1 32 32 W 30 48 30.04 1017 10 16.0934 0 0
2:56 pm 14:56 Sunny 50 10 20 -6.6 31 31 W 25 41 30.04 1017 10 16.0934 0 0
3:56 pm 15:56 Sunny 48 8.8 17 -8.3 29 29 W 21 33 30.06 1018 10 16.0934 0 0
7:56 pm 19:56 Clear 40 4.4 24 -4.4 53 53 W 12 19 30.18 1022 10 16.0934 0 0
8:56 pm 20:56 Clear 40 4.4 24 -4.4 53 53 W 10 17 30.19 1022 10 16.0934 0 0
9:56 pm 21:56 Clear 37 2.7 25 -3.8 63 63 W 8 13 30.2 1023 10 16.0934 0 0
10:56 pm 22:56 Clear 36 2.2 24 -4.4 62 62 W 7 11 30.21 1023 10 16.0934 0 0
11:56 pm 23:56 Clear 33 0.5 25 -3.8 73 73 W 7 11 30.22 1023 10 16.0934 0 0

Powered by AerisWeather